Hourly Data Report for October 28, 2020

MUSKOKA
ONTARIO
Current Station Operator: NAVCAN

44°58'29.000" N
79°18'12.000" W
281.90 m
6115529
71532
YQA

Download Data

Hourly Data (October 2020)
Hourly Data Report for October 28, 2020
TIME Temp Definition
°C
Dew Point Definition
°C
Rel Hum Definition
%
Wind Dir Definition
10's deg

Wind Spd Definition
km/h
Visibility Definition
km
Stn Press Definition
kPa
Hmdx Definition


Wind Chill Definition


Weather Definition


00:00 1.0 0.9 99 15 11 11.3 98.38     LegendNANA
01:00 1.0 0.9 99 14 11 6.4 98.34     Fog
02:00 0.9 0.7 99 15 11 12.9 98.27     LegendNANA
03:00 0.9 0.3 96 16 13 16.1 98.22     LegendNANA
04:00 1.0 0.1 94 18 9 16.1 98.13     LegendNANA
05:00 1.3 0.4 94 18 11 16.1 98.15     LegendNANA
06:00 1.4 0.5 94 18 13 16.1 98.05     LegendNANA
07:00 1.7 0.5 92 18 15 16.1 98.02     LegendNANA
08:00 2.3 0.6 88 19 15 16.1 98.01     LegendNANA
09:00 3.8 0.8 81 21 17 16.1 98.00     LegendNANA
10:00 5.5 0.1 68 22 26 16.1 97.89     LegendNANA
11:00 6.4 0.6 66 22 18 16.1 97.88     LegendNANA
12:00 7.3 0.0 60 22 28 16.1 97.85     LegendNANA
13:00 7.0 -0.6 58 23 22 16.1 97.78     LegendNANA
14:00 8.2 -1.2 52 22 24 16.1 97.73     LegendNANA
15:00 7.6 -0.9 55 25 11 16.1 97.75     LegendNANA
16:00 7.3 0.4 61 25 15 16.1 97.79     LegendNANA
17:00 6.9 1.6 69 24 15 16.1 97.81     LegendNANA
18:00 6.8 2.1 72 26 13 16.1 97.85     LegendNANA
19:00 6.6 2.1 73 27 17 16.1 97.94     LegendNANA
20:00 6.4 1.9 73 28 13 16.1 97.94     LegendNANA
21:00 5.9 1.8 75 23 8 16.1 97.94     LegendNANA
22:00 5.5 1.8 77   0 16.1 97.92     LegendNANA
23:00 4.2 2.3 87 LegendMM 4 16.1 97.88     LegendNANA

Notes on Data Quality.

Legend

  • E = Estimated
  • M = Missing
  • NA = Not Available*
  • [empty] = Indicates an unobserved value
Date modified: